Weather in Milgidun

Russia / Zabaykalsky Krai     52°39′31″N   116°55′17″E
temp.,
°C
wind,
m/s
gust,
m/s
humid.,
%
clouds,
%
prec.,
mm/h
press.,
hPa
HPBL,
m
17 april, sat
sat1700:00−1ssw22345 0.0 101311
03:00−2ssw22395 0.0 101312
06:00−3ssw22495 0.0 101330
09:00+2ssw243821 0.0 1011396
12:00+9sw453020 0.0 1008914
15:00+14wsw582384 0.0 10032090
18:00+15wsw58195 0.0 10012667
21:00+8sw22355 0.0 100311
18 april, sun
sun1800:00+5sse224273 0.0 100310
03:00+3sse114890 0.0 100310
06:00+1sse005267 0.0 100310
09:00+8ssw22365 0.0 1001272
12:00+14w5826100 0.0 9992141
15:00+12nw6928100 0.0 10002454
18:00+6nnw913465 0.0 10061440
21:00−2nnw713350 0.0 10141012
19 april, mon
mon1900:00−6nnw613320 0.0 10201056
03:00−7nnw613290 0.0 1023988
06:00−9nnw39320 0.0 1025347
09:00−4nnw47185 0.0 1025987
12:000nw351231 0.0 10231610
15:00+3w35115 0.0 10192142
18:00+4w35110 0.0 10172207
21:00−1se22205 0.0 101811
20 april, tue
tue2000:00−3e11225 0.0 101810
03:00−4ene11255 0.0 101510
06:00−5ene112914 0.0 101410
09:00+2se1319100 0.0 1011342
12:00+8ssw3624100 0.0 1008841
15:00+13w3523100 0.0 10051373
18:00+14n2526100 0.0 10052252
21:00+7n22405 0.0 100817
21 april, wed
wed2100:00+3nne22505 0.0 101126
03:00+2ne22535 0.0 101010
06:00+1ne21615 0.0 101011
09:00+8ene124592 0.0 1007292
12:00+16ese233286 0.1 1004943
15:00+19sw1424100 0.1 10021412
18:00+19nnw222317 0.0 10001105
21:00+11n354435 0.0 100491